Погода в Владимировке

Россия / Самарская область     53°07′29″N   49°21′12″E
темп.,
°C
ветер,
м/с
пор.,
м/с
влажн.,
%
обл.,
%
осадки,
мм/ч
давл.,
гПа
погр.,
м
9 мая, вс
вс901:00+14ю3468100 0.0 101349
04:00+13ююв337370 0.0 101339
07:00+15ююв257085 0.0 1013162
10:00+20ю575129 0.0 1013820
13:00+20ю4856100 0.0 1013333
16:00+22ююв574674 0.0 10121370
19:00+21ю355636 0.0 1012103
22:00+17ююв4760100 0.0 101395
10 мая, пн
пн1001:00+16юв3855100 0.0 1014126
04:00+14вюв3661100 0.0 101495
07:00+15в4968100 0.0 1016240
10:00+21юв5944100 0.0 1016620
13:00+25юв6834100 0.0 10172083
16:00+24в5738100 0.0 10171774
19:00+21в51050100 0.0 1018277
22:00+19всв51150100 0.0 1019268
11 мая, вт
вт1101:00+16всв41061100 0.0 1020197
04:00+15всв4966100 0.0 1021163
07:00+16в41067100 0.0 1023283
10:00+21в684793 0.0 1024692
13:00+25в67365 0.0 10242093
16:00+25в663616 0.0 10242284
19:00+22в5105197 0.0 1024279
22:00+18в4125691 0.0 1025222
12 мая, ср
ср1201:00+16в41262100 0.0 1026248
04:00+15в4106835 0.0 1026195
07:00+16в511666 0.0 1026361
10:00+21вюв794327 0.0 10271090
13:00+24вюв7935100 0.0 10271867
16:00+24юв683494 0.0 10261886
19:00+20ююв3556100 0.0 102696
22:00+17в2258100 0.0 102645
13 мая, чт
чт1301:00+17всв355884 0.0 102595
04:00+14в495799 0.0 1025158
07:00+16в512598 0.0 1025364
10:00+21юв7104486 0.0 1025729
13:00+22юв5842100 0.0 1025938
16:00+23юв5845100 0.0 1024808
19:00+21вюв375334 0.0 1024150
22:00+17вюв455378 0.0 102457